Regional Weather Roundup
Issued by NWS

Home | Current Version | Previous Version | Graphics & Text | Print | Product List | Glossary On
Versions: 1 2 3 4 5 6 7 8 9 10 11 12 13 14 15 16 17 18 19 20 21 22 23 24 25 26 27
000
ASUS45 KSLC 240710
RWRUT

UTAH REGIONAL WEATHER ROUNDUP
NATIONAL WEATHER SERVICE SALT LAKE CITY UT
100 AM MDT THU APR 24 2014

UTZ001>011-023>025-240800-

NORTHERN UTAH

CITY           SKY/WX    TMP DP  RH WIND       PRES   REMARKS
HILL AFB       CLEAR     39  21  48 E12       30.07F WCI  32
LOGAN          CLEAR     34  27  75 CALM      30.06F
OGDEN          CLEAR     40  24  53 S8        30.06F WCI  34
PROVO AIRPORT  PTCLDY    37  21  52 CALM      30.10S
SALT LAKE CITY PTCLDY    40  22  48 SE8       30.07F WCI  34
VERNAL         CLEAR     34  13  41 S3        30.06S
WENDOVER       MOCLDY    46  16  29 CALM      30.05S
HEBER CITY     CLEAR     28  19  69 CALM      30.10S
WEST JORDAN    CLEAR     39  23  52 SW5       30.09S

$$

UTZ012>022-026-027-240800-

SOUTHERN UTAH

CITY           SKY/WX    TMP DP  RH WIND       PRES   REMARKS
BRYCE CANYON   CLEAR     21   7  54 NW7       30.12S WCI  12
CEDAR CITY     CLEAR     33  11  39 CALM      30.07R
MILFORD        CLEAR     40   9  28 W3        30.07R
MOAB/CYNLANDS  CLEAR     44   7  21 W9        30.04R
PRICE          CLEAR     33   8  35 W5        30.07S WCI  29
ST GEORGE      SUNNY     55  16  21 CALM      30.00S

$$

REGIONAL REPORTS     COLORADO/ARIZONA

CITY           SKY/WX    TMP DP  RH WIND       PRES   REMARKS
CRAIG, CO      CLEAR     30  16  56 W3        30.09R
GRAND JUNCTION CLEAR     37  12  35 CALM      30.06R
RIFLE          CLEAR     41  11  29 NW8       30.07R
MONTROSE       CLEAR     34  16  47 SE8       30.09R WCI  27
CORTEZ         CLEAR     35  13  40 NE7       30.05R WCI  29
PAGE, AZ       CLEAR     57  11  16 VRB3      30.02R
GRAND CANYON   PTCLDY    25   9  50 CALM      30.10R
KINGMAN        PTCLDY    50   6  16 SE8       29.99S
FLAGSTAFF      PTCLDY    30  11  45 CALM      30.10R

$$

REGIONAL REPORTS    NEVADA/IDAHO/WYOMING

CITY           SKY/WX    TMP DP  RH WIND       PRES   REMARKS
LAS VEGAS, NV  MOCLDY    65  14  14 SW9       29.90S
ELY            CLEAR     29  17  61 S13       30.09R WCI  19
ELKO           MOCLDY    38  25  59 E3        30.03F
POCATELLO, ID  CLEAR     40  26  57 S10       30.03S WCI  33
BURLEY         CLEAR     38  28  67 S9        30.00S WCI  31
EVANSTON, WY   CLEAR     27  15  61 SW10      30.08S WCI  17
ROCK SPRINGS   CLEAR     30  14  51 SW13      30.06S WCI  20

$$



USA.gov is the U.S. government's official web portal to all federal, state and local government web resources and services.